STARLINK-31689, 59567

Orbit data source: Space-Track

STARLINK-31689, 59567 is a payload satellite owned by SpaceX/Seattle (US) in LEO that was launched on Tue, 23 Apr 2024 UTC via an FALCON 9 launch vehicle from the Air Force Eastern Test Range (AFETR). Payload-class satellites include a variety of spacecraft equipped with specific instruments for various scientific and technological missions. These include communications satellites like Starlink; space stations such as the ISS; scientific satellites like the Hubble; Earth observation satellites from companies like Planet Labs, Umbra, and HawkEye 360; GPS; miniature CubeSats for education and research; and military/defense satellites.

Loading next visibility...
Identifier
59567, 2024-076D
Orbit
LEO
Country
Flag of USUS
Related business
Manufacturer
SpaceX/Seattle
Mission
Operational spacecraft
Bus & Motor
STARLINK V2M, Unknown motor
Mass
730 kg wet, ~700 kg dry
Launch date (UTC)
2024-04-23 (1 year ago)
Launch vehicle
FALCON 9
Launch site
Air Force Eastern Test Range (AFETR)
Object type
Payload
Rocket body
Debris
Shape & HBR
Unknown
Radar Cross Section
Large (>1 m²)

Expand to show TLE details & history
Last TLE update: 19 hours ago

TLE from 19 hours ago
0 STARLINK-31689
1 59567U 24076D   25257.55537957 -.00000335  00000-0 -26512-5 0  9992
2 59567  43.0008 280.3933 0000282 269.7690  90.3129 15.27571324 79601
Epoch: 2025-09-14T13:19Z
TLE epoch observation values (Epoch: 2025-09-14T13:19:44.794Z)
Latitude
-0.00006°
Longitude
86.68389°
Altitude
482.852 km
Speed
7.626 km/s
True Right ascension
18h 41m 34s
True Declination
0° 00' 00"
Sunlit
Object was in daylight at epoch
Visualization orbit readout
Latitude
Unknown
Longitude
Unknown
Altitude
Unknown
Speed
Unknown
Apparent Right ascension
Unknown
Apparent Declination
Unknown
Sunlit
N/A
Visualization observer readout
Local Sidereal Time
00:39:33
Azimuth
Unknown
Elevation
Unknown
Doppler factor
Unknown
Orbital elements
Apogee altitude
485.214 km
Perigee altitude
484.827 km
Semi-major axis
6,863.157 km
Eccentricity
0.00003
Inclination
43.0008°
RAAN
280.3933°
Arg. of periapsis
269.769°
True anomaly
90.31613°
Mean anomaly
90.3129°
Eccentric anomaly
90.31452°
Mean motion
3.81731 °/min
Orbital period
94.31 mins
BSTAR
-0.0000026512
Loading maneuver chart data...
Computing Atmospheric mass density...
Loading historical data...
Loading historical data...
Loading historical data...
Loading historical data...
Loading historical data...
Loading historical data...
Loading historical data...

Documentation

Showing up to 5 results
|